| time (UTC) | temp F | wind direction | speed knots | gust knots | rain 1hr in | rain 24hr in | rain mn in | humidity % | barometer mb |
| 20260502164040 | 55 | 209 | 1.7 | 3.5 | 0.00 | 0.03 | 0.03 | 80 | 1013.4 |
| 20260502163541 | 55 | 209 | 1.7 | 3.5 | 0.00 | 0.03 | 0.03 | 80 | 1013.5 |
| 20260502163040 | 54 | 209 | 1.7 | 3.5 | 0.00 | 0.03 | 0.03 | 81 | 1013.5 |
| 20260502162542 | 54 | 209 | 0.9 | 5.2 | 0.00 | 0.03 | 0.03 | 82 | 1013.5 |
| 20260502162039 | 54 | 209 | 1.7 | 5.2 | 0.00 | 0.03 | 0.03 | 82 | 1013.5 |
| 20260502161640 | 54 | 209 | 2.6 | 4.3 | 0.00 | 0.03 | 0.03 | 82 | 1013.4 |
| 20260502161038 | 54 | 213 | 1.7 | 3.5 | 0.00 | 0.03 | 0.03 | 83 | 1013.5 |
| 20260502160541 | 54 | 213 | 0.9 | 4.3 | 0.00 | 0.03 | 0.03 | 83 | 1013.5 |
| 20260502152038 | 53 | 214 | 3.5 | 5.2 | 0.00 | 0.03 | 0.03 | 85 | 1013.5 |
| 20260502151537 | 53 | 205 | 0.9 | 2.6 | 0.00 | 0.03 | 0.03 | 85 | 1013.6 |
| 20260502151037 | 53 | 205 | 0.9 | 2.6 | 0.00 | 0.03 | 0.03 | 85 | 1013.5 |
| 20260502150536 | 53 | 205 | 0.9 | 3.5 | 0.00 | 0.03 | 0.03 | 85 | 1013.5 |
| 20260502130527 | 53 | 215 | 0.9 | 2.6 | 0.00 | 0.03 | 0.03 | 87 | 1014.0 |
| 20260502123525 | 52 | 360 | 0.9 | 2.6 | 0.00 | 0.03 | 0.03 | 90 | 1013.9 |
| 20260502123025 | 52 | 360 | 0.0 | 4.3 | 0.00 | 0.03 | 0.03 | 91 | 1013.9 |
| 20260502122523 | 51 | 213 | 1.7 | 4.3 | 0.00 | 0.03 | 0.03 | 91 | 1013.9 |
| 20260502122122 | 52 | 213 | 0.9 | 2.6 | 0.00 | 0.03 | 0.03 | 92 | 1013.9 |
| 20260502121535 | 52 | 213 | 0.0 | 2.6 | 0.00 | 0.03 | 0.03 | 92 | 1014.1 |
| 20260502121019 | 52 | 213 | 0.9 | 2.6 | 0.00 | 0.03 | 0.03 | 92 | 1014.1 |
| 20260502120518 | 51 | 213 | 0.9 | 3.5 | 0.00 | 0.03 | 0.03 | 92 | 1014.0 |
| 20260502115517 | 51 | 360 | 1.7 | 5.2 | 0.00 | 0.03 | 0.03 | 92 | 1014.1 |
| 20260502115017 | 51 | 360 | 2.6 | 5.2 | 0.01 | 0.03 | 0.03 | 92 | 1014.3 |
| 20260502114517 | 50 | 360 | 1.7 | 7.0 | 0.01 | 0.03 | 0.03 | 92 | 1014.4 |
| 20260502114016 | 50 | 360 | 3.5 | 7.0 | 0.02 | 0.03 | 0.03 | 92 | 1014.3 |
| 20260502113517 | 50 | 360 | 2.6 | 5.2 | 0.03 | 0.03 | 0.03 | 92 | 1014.1 |
| 20260502113015 | 50 | 360 | 2.6 | 5.2 | 0.03 | 0.03 | 0.03 | 92 | 1013.9 |
| 20260502112515 | 50 | 189 | 0.9 | 5.2 | 0.03 | 0.03 | 0.03 | 92 | 1013.6 |
| 20260502112017 | 50 | 189 | 3.5 | 5.2 | 0.03 | 0.03 | 0.03 | 92 | 1013.5 |
| 20260502111514 | 50 | 188 | 1.7 | 4.3 | 0.03 | 0.03 | 0.03 | 91 | 1013.6 |
| 20260502111014 | 50 | 188 | 2.6 | 4.3 | 0.03 | 0.03 | 0.03 | 91 | 1013.4 |
| 20260502110514 | 50 | 171 | 0.9 | 3.5 | 0.03 | 0.03 | 0.03 | 91 | 1013.4 |
| 20260502110018 | 50 | 169 | 0.9 | 4.3 | 0.03 | 0.03 | 0.03 | 91 | 1013.2 |
| 20260502105513 | 50 | 169 | 2.6 | 4.3 | 0.03 | 0.03 | 0.03 | 90 | 1013.2 |
| 20260502105114 | 50 | 244 | 1.7 | 3.5 | 0.02 | 0.02 | 0.02 | 90 | 1013.2 |
| 20260502104512 | 50 | 360 | 0.0 | 2.6 | 0.02 | 0.02 | 0.02 | 90 | 1013.2 |
| 20260502104011 | 51 | 248 | 0.0 | 3.5 | 0.01 | 0.01 | 0.01 | 89 | 1013.3 |
| 20260502103511 | 51 | 248 | 1.7 | 6.1 | 0.00 | 0.00 | 0.00 | 89 | 1013.7 |
| 20260502103011 | 51 | 360 | 2.6 | 6.1 | 0.00 | 0.00 | 0.00 | 88 | 1013.6 |
| 20260502102511 | 51 | 360 | 3.5 | 5.2 | 0.00 | 0.00 | 0.00 | 88 | 1013.5 |
| 20260502102011 | 51 | 360 | 1.7 | 7.0 | 0.00 | 0.00 | 0.00 | 88 | 1013.5 |
| 20260502101513 | 51 | 360 | 2.6 | 8.7 | 0.00 | 0.00 | 0.00 | 88 | 1013.6 |
| 20260502101010 | 51 | 360 | 4.3 | 10.4 | 0.00 | 0.00 | 0.00 | 88 | 1013.7 |
| 20260502100510 | 51 | 360 | 6.1 | 10.4 | 0.00 | 0.00 | 0.00 | 88 | 1013.9 |
| 20260502091507 | 51 | 229 | 5.2 | 8.7 | 0.00 | 0.00 | 0.00 | 88 | 1013.4 |
| 20260502091006 | 51 | 227 | 4.3 | 8.7 | 0.00 | 0.00 | 0.00 | 88 | 1013.3 |
| 20260502090505 | 51 | 244 | 4.3 | 9.6 | 0.00 | 0.00 | 0.00 | 87 | 1013.3 |
| 20260502071051 | 51 | 276 | 5.2 | 13.0 | 0.00 | 0.00 | 0.00 | 90 | 1013.4 |
| 20260502070551 | 51 | 235 | 7.0 | 13.0 | 0.00 | 0.00 | 0.00 | 90 | 1013.6 |
| 20260502070050 | 51 | 236 | 8.7 | 13.9 | 0.00 | 0.00 | 0.00 | 90 | 1013.5 |
| 20260502065550 | 51 | 227 | 7.8 | 13.9 | 0.00 | 0.00 | 0.00 | 90 | 1013.5 |
| 20260502065049 | 51 | 230 | 8.7 | 13.0 | 0.00 | 0.00 | 0.00 | 90 | 1013.6 |
| 20260502064548 | 51 | 221 | 7.8 | 14.8 | 0.00 | 0.00 | 0.00 | 90 | 1013.6 |
| 20260502064050 | 51 | 234 | 9.6 | 14.8 | 0.00 | 0.00 | 0.00 | 90 | 1013.6 |
| 20260502063547 | 51 | 254 | 7.0 | 14.8 | 0.00 | 0.00 | 0.00 | 90 | 1013.6 |
| 20260502063048 | 51 | 232 | 5.2 | 13.0 | 0.00 | 0.00 | 0.00 | 90 | 1013.6 |
| 20260502062546 | 51 | 250 | 9.6 | 13.0 | 0.00 | 0.00 | 0.00 | 90 | 1013.7 |
| 20260502062046 | 51 | 205 | 7.0 | 13.0 | 0.00 | 0.00 | 0.00 | 89 | 1013.7 |
| 20260502061545 | 51 | 229 | 7.0 | 10.4 | 0.00 | 0.00 | 0.00 | 89 | 1013.9 |
| 20260502061044 | 51 | 203 | 5.2 | 10.4 | 0.00 | 0.00 | 0.00 | 89 | 1014.0 |
| 20260502060544 | 51 | 205 | 7.0 | 13.0 | 0.00 | 0.00 | 0.00 | 89 | 1014.0 |
| 20260502060043 | 51 | 238 | 7.8 | 13.0 | 0.00 | 0.00 | 0.00 | 89 | 1014.0 |
| 20260502055543 | 51 | 236 | 9.6 | 13.0 | 0.00 | 0.00 | 0.00 | 88 | 1014.0 |
| 20260502055042 | 51 | 245 | 7.0 | 11.3 | 0.00 | 0.00 | 0.00 | 88 | 1014.0 |
| 20260502054544 | 51 | 213 | 5.2 | 12.2 | 0.00 | 0.00 | 0.00 | 88 | 1014.1 |
| 20260502054040 | 51 | 227 | 5.2 | 9.6 | 0.00 | 0.00 | 0.00 | 88 | 1013.9 |
| 20260502053540 | 51 | 226 | 3.5 | 8.7 | 0.00 | 0.00 | 0.00 | 87 | 1013.8 |
| 20260502053040 | 51 | 210 | 3.5 | 8.7 | 0.00 | 0.00 | 0.00 | 87 | 1013.5 |
| 20260502052539 | 51 | 200 | 4.3 | 9.6 | 0.00 | 0.00 | 0.00 | 86 | 1013.5 |
| 20260502052043 | 51 | 223 | 4.3 | 9.6 | 0.00 | 0.00 | 0.00 | 85 | 1013.7 |
| 20260502051539 | 52 | 236 | 5.2 | 8.7 | 0.00 | 0.00 | 0.00 | 85 | 1013.6 |
| 20260502051038 | 52 | 225 | 5.2 | 7.8 | 0.00 | 0.00 | 0.00 | 85 | 1013.7 |
| 20260502050538 | 52 | 242 | 3.5 | 7.0 | 0.00 | 0.00 | 0.00 | 85 | 1013.9 |
| 20260502050042 | 52 | 221 | 4.3 | 7.8 | 0.00 | 0.00 | 0.00 | 84 | 1013.9 |
| 20260502045538 | 52 | 218 | 3.5 | 10.4 | 0.00 | 0.00 | 0.00 | 83 | 1013.9 |
| 20260502045038 | 52 | 213 | 7.8 | 10.4 | 0.00 | 0.00 | 0.00 | 83 | 1014.0 |
| 20260502044536 | 52 | 222 | 4.3 | 9.6 | 0.00 | 0.00 | 0.00 | 82 | 1014.0 |
| 20260502044036 | 52 | 240 | 7.0 | 10.4 | 0.00 | 0.00 | 0.00 | 82 | 1013.8 |
| 20260502043536 | 52 | 237 | 7.8 | 10.4 | 0.00 | 0.00 | 0.00 | 83 | 1014.0 |
| 20260502043037 | 52 | 221 | 6.1 | 12.2 | 0.00 | 0.00 | 0.00 | 83 | 1014.1 |
| 20260502042537 | 52 | 245 | 7.8 | 13.9 | 0.00 | 0.00 | 0.00 | 83 | 1014.2 |
| 20260502042034 | 52 | 237 | 8.7 | 13.9 | 0.00 | 0.00 | 0.00 | 83 | 1014.2 |
| 20260502041533 | 52 | 234 | 7.8 | 12.2 | 0.00 | 0.00 | 0.00 | 83 | 1014.0 |
| 20260502041031 | 52 | 229 | 6.1 | 12.2 | 0.00 | 0.00 | 0.00 | 82 | 1013.9 |
| 20260502040532 | 52 | 271 | 7.0 | 13.9 | 0.00 | 0.00 | 0.00 | 81 | 1013.9 |
| 20260502040028 | 52 | 246 | 5.2 | 13.9 | 0.00 | 0.00 | 0.00 | 81 | 1013.9 |
| 20260502035528 | 52 | 217 | 5.2 | 11.3 | 0.00 | 0.00 | 0.00 | 81 | 1013.9 |
| 20260502035128 | 52 | 225 | 7.0 | 11.3 | 0.00 | 0.00 | 0.00 | 80 | 1014.0 |
| 20260502034528 | 52 | 215 | 6.1 | 13.0 | 0.00 | 0.00 | 0.00 | 80 | 1013.9 |
| 20260502034027 | 52 | 190 | 5.2 | 10.4 | 0.00 | 0.00 | 0.00 | 80 | 1013.8 |
| 20260502033526 | 52 | 246 | 6.1 | 10.4 | 0.00 | 0.00 | 0.00 | 80 | 1013.7 |
| 20260502033034 | 52 | 194 | 4.3 | 10.4 | 0.00 | 0.00 | 0.00 | 80 | 1013.8 |
| 20260502032527 | 52 | 210 | 6.1 | 13.9 | 0.00 | 0.00 | 0.00 | 80 | 1013.9 |
| 20260502032027 | 52 | 185 | 4.3 | 13.9 | 0.00 | 0.00 | 0.00 | 81 | 1013.9 |
| 20260502031527 | 52 | 212 | 6.1 | 15.6 | 0.00 | 0.00 | 0.00 | 81 | 1014.1 |
| 20260502031027 | 52 | 212 | 8.7 | 16.5 | 0.00 | 0.00 | 0.00 | 82 | 1014.2 |
| 20260502030526 | 52 | 219 | 9.6 | 16.5 | 0.00 | 0.00 | 0.00 | 82 | 1014.2 |
| 20260502030026 | 52 | 229 | 9.6 | 15.6 | 0.00 | 0.00 | 0.00 | 83 | 1014.4 |
| 20260502025526 | 51 | 275 | 10.4 | 20.0 | 0.00 | 0.00 | 0.00 | 83 | 1014.4 |
| 20260502025027 | 51 | 215 | 11.3 | 19.1 | 0.00 | 0.00 | 0.00 | 84 | 1014.4 |
| 20260502024525 | 51 | 200 | 12.2 | 19.1 | 0.00 | 0.00 | 0.00 | 85 | 1014.4 |
| 20260502024025 | 51 | 196 | 12.2 | 18.2 | 0.00 | 0.00 | 0.00 | 85 | 1014.1 |
| 20260502023525 | 51 | 185 | 12.2 | 20.9 | 0.00 | 0.00 | 0.00 | 85 | 1014.1 |
| 20260502023024 | 51 | 202 | 14.8 | 23.5 | 0.00 | 0.00 | 0.00 | 85 | 1014.0 |
| 20260502022524 | 51 | 193 | 13.9 | 21.7 | 0.00 | 0.00 | 0.00 | 85 | 1014.0 |
| 20260502022024 | 51 | 200 | 13.9 | 21.7 | 0.00 | 0.00 | 0.00 | 84 | 1013.9 |
| 20260502021523 | 51 | 171 | 13.9 | 21.7 | 0.00 | 0.00 | 0.00 | 85 | 1014.1 |
| 20260502021023 | 51 | 195 | 15.6 | 21.7 | 0.00 | 0.00 | 0.00 | 85 | 1014.0 |
| 20260502020523 | 51 | 198 | 14.8 | 23.5 | 0.00 | 0.00 | 0.00 | 84 | 1014.1 |
| 20260502020023 | 51 | 200 | 15.6 | 21.7 | 0.00 | 0.00 | 0.00 | 84 | 1014.0 |
| 20260502015622 | 51 | 178 | 14.8 | 20.0 | 0.00 | 0.00 | 0.00 | 84 | 1014.0 |
| 20260502015022 | 51 | 212 | 13.9 | 20.9 | 0.00 | 0.00 | 0.00 | 84 | 1014.1 |
| 20260502014527 | 51 | 202 | 14.8 | 20.0 | 0.00 | 0.00 | 0.00 | 84 | 1014.0 |
| 20260502014021 | 51 | 194 | 14.8 | 20.0 | 0.00 | 0.00 | 0.00 | 84 | 1014.0 |
| 20260502013521 | 52 | 186 | 13.0 | 21.7 | 0.00 | 0.00 | 0.00 | 84 | 1014.1 |
| 20260502013021 | 51 | 181 | 14.8 | 21.7 | 0.00 | 0.00 | 0.00 | 83 | 1014.0 |
| 20260502012521 | 52 | 360 | 16.5 | 20.0 | 0.00 | 0.00 | 0.00 | 83 | 1014.0 |
| 20260502012021 | 52 | 360 | 14.8 | 22.6 | 0.00 | 0.00 | 0.00 | 83 | 1014.0 |
| 20260502011521 | 52 | 360 | 17.4 | 26.1 | 0.00 | 0.00 | 0.00 | 82 | 1013.9 |
| 20260502011021 | 52 | 360 | 15.6 | 26.1 | 0.00 | 0.00 | 0.00 | 82 | 1013.7 |
| 20260502010520 | 52 | 360 | 17.4 | 25.2 | 0.00 | 0.00 | 0.00 | 81 | 1013.5 |
| 20260502010020 | 52 | 360 | 15.6 | 25.2 | 0.00 | 0.01 | 0.00 | 81 | 1013.5 |
| 20260502005519 | 52 | 360 | 14.8 | 23.5 | 0.00 | 0.01 | 0.00 | 80 | 1013.6 |
| 20260502005019 | 52 | 202 | 13.9 | 21.7 | 0.00 | 0.01 | 0.00 | 80 | 1013.6 |
| 20260502004534 | 52 | 198 | 13.9 | 22.6 | 0.00 | 0.01 | 0.00 | 79 | 1013.6 |
| 20260502004019 | 52 | 360 | 14.8 | 21.7 | 0.00 | 0.01 | 0.00 | 79 | 1013.6 |
| 20260502003518 | 52 | 360 | 15.6 | 20.9 | 0.00 | 0.01 | 0.00 | 79 | 1013.7 |
| 20260502003018 | 52 | 360 | 13.0 | 20.9 | 0.00 | 0.01 | 0.00 | 79 | 1013.7 |
| 20260502002518 | 52 | 360 | 15.6 | 20.9 | 0.00 | 0.01 | 0.00 | 80 | 1013.6 |
| 20260502002018 | 52 | 360 | 13.9 | 19.1 | 0.00 | 0.01 | 0.00 | 80 | 1013.5 |
| 20260502001518 | 52 | 360 | 12.2 | 20.0 | 0.00 | 0.01 | 0.00 | 81 | 1013.5 |
| 20260502001018 | 52 | 360 | 12.2 | 22.6 | 0.00 | 0.01 | 0.00 | 81 | 1013.3 |
| 20260502000517 | 52 | 360 | 13.9 | 22.6 | 0.00 | 0.01 | 0.00 | 81 | 1013.3 |
| 20260502000018 | 52 | 360 | 9.6 | 20.0 | 0.00 | 0.01 | 0.00 | 81 | 1013.3 |
| 20260501235518 | 52 | 360 | 13.0 | 20.0 | 0.00 | 0.01 | 0.00 | 81 | 1013.3 |
| 20260501235017 | 52 | 181 | 10.4 | 20.0 | 0.00 | 0.01 | 0.00 | 82 | 1013.3 |
| 20260501234525 | 52 | 225 | 10.4 | 17.4 | 0.00 | 0.01 | 0.00 | 82 | 1013.3 |
| 20260501234016 | 52 | 360 | 11.3 | 20.9 | 0.00 | 0.01 | 0.00 | 81 | 1013.3 |
| 20260501233517 | 52 | 360 | 13.0 | 22.6 | 0.00 | 0.01 | 0.00 | 81 | 1013.2 |
| 20260501233016 | 52 | 360 | 13.9 | 22.6 | 0.00 | 0.01 | 0.00 | 81 | 1013.2 |
| 20260501232515 | 52 | 360 | 12.2 | 19.1 | 0.00 | 0.01 | 0.00 | 81 | 1013.1 |
| 20260501232016 | 52 | 360 | 11.3 | 20.0 | 0.00 | 0.01 | 0.00 | 80 | 1013.0 |
| 20260501231519 | 52 | 211 | 9.6 | 19.1 | 0.00 | 0.01 | 0.00 | 80 | 1013.0 |
| 20260501231015 | 52 | 201 | 11.3 | 19.1 | 0.00 | 0.01 | 0.00 | 79 | 1013.0 |
| 20260501230515 | 52 | 207 | 12.2 | 23.5 | 0.00 | 0.01 | 0.00 | 79 | 1012.9 |
| 20260501230015 | 53 | 194 | 13.0 | 23.5 | 0.00 | 0.03 | 0.00 | 78 | 1013.0 |
| 20260501225514 | 53 | 180 | 13.9 | 23.5 | 0.00 | 0.03 | 0.00 | 78 | 1012.9 |
| 20260501225014 | 53 | 202 | 13.9 | 23.5 | 0.00 | 0.03 | 0.00 | 78 | 1012.9 |
| 20260501224514 | 53 | 190 | 12.2 | 19.1 | 0.00 | 0.03 | 0.00 | 78 | 1012.8 |
| 20260501224013 | 53 | 181 | 12.2 | 21.7 | 0.00 | 0.03 | 0.00 | 78 | 1013.0 |
| 20260501223513 | 53 | 233 | 13.0 | 21.7 | 0.00 | 0.03 | 0.00 | 78 | 1012.9 |
| 20260501223013 | 53 | 82 | 12.2 | 21.7 | 0.00 | 0.03 | 0.00 | 79 | 1013.0 |
| 20260501222513 | 53 | 170 | 13.0 | 21.7 | 0.00 | 0.03 | 0.00 | 79 | 1013.0 |
| 20260501222013 | 53 | 198 | 12.2 | 20.9 | 0.00 | 0.03 | 0.00 | 79 | 1013.1 |
| 20260501221513 | 53 | 178 | 13.9 | 20.9 | 0.00 | 0.03 | 0.00 | 78 | 1013.1 |
| 20260501221012 | 53 | 192 | 13.9 | 21.7 | 0.00 | 0.03 | 0.00 | 79 | 1013.1 |
| 20260501220512 | 53 | 215 | 13.9 | 21.7 | 0.00 | 0.03 | 0.00 | 79 | 1013.0 |
| 20260501220012 | 53 | 194 | 13.0 | 23.5 | 0.00 | 0.03 | 0.00 | 79 | 1013.0 |
| 20260501215512 | 53 | 207 | 13.0 | 26.9 | 0.00 | 0.03 | 0.00 | 78 | 1013.0 |
| 20260501215011 | 53 | 204 | 16.5 | 26.9 | 0.00 | 0.03 | 0.00 | 77 | 1013.1 |
| 20260501214511 | 53 | 204 | 17.4 | 22.6 | 0.00 | 0.03 | 0.00 | 77 | 1013.0 |
| 20260501214012 | 53 | 231 | 15.6 | 23.5 | 0.00 | 0.03 | 0.00 | 76 | 1013.0 |
| 20260501213509 | 53 | 204 | 14.8 | 26.1 | 0.00 | 0.03 | 0.00 | 76 | 1012.9 |
| 20260501213009 | 53 | 209 | 14.8 | 26.1 | 0.00 | 0.03 | 0.00 | 75 | 1012.8 |
| 20260501212508 | 53 | 219 | 16.5 | 24.3 | 0.00 | 0.03 | 0.00 | 75 | 1012.8 |
| 20260501212008 | 53 | 174 | 17.4 | 23.5 | 0.00 | 0.03 | 0.00 | 74 | 1012.8 |
| 20260501211508 | 53 | 196 | 16.5 | 25.2 | 0.00 | 0.03 | 0.00 | 75 | 1012.7 |
| 20260501211008 | 53 | 201 | 19.1 | 25.2 | 0.00 | 0.03 | 0.00 | 73 | 1012.7 |
| 20260501210508 | 53 | 189 | 16.5 | 24.3 | 0.00 | 0.03 | 0.00 | 72 | 1012.7 |
| 20260501210007 | 53 | 192 | 16.5 | 29.5 | 0.00 | 0.03 | 0.00 | 72 | 1012.7 |
| 20260501205506 | 53 | 198 | 15.6 | 25.2 | 0.00 | 0.03 | 0.00 | 71 | 1012.7 |
| 20260501205007 | 53 | 193 | 17.4 | 25.2 | 0.00 | 0.03 | 0.00 | 70 | 1012.6 |
| 20260501204505 | 53 | 212 | 18.2 | 26.1 | 0.00 | 0.03 | 0.00 | 69 | 1012.7 |
| 20260501204005 | 53 | 204 | 18.2 | 25.2 | 0.00 | 0.03 | 0.00 | 70 | 1012.6 |
| 20260501203505 | 53 | 169 | 16.5 | 26.1 | 0.00 | 0.03 | 0.00 | 69 | 1012.7 |
| 20260501203005 | 54 | 199 | 16.5 | 26.1 | 0.00 | 0.03 | 0.00 | 69 | 1012.7 |
| 20260501202504 | 54 | 198 | 18.2 | 23.5 | 0.00 | 0.03 | 0.00 | 69 | 1012.5 |
| 20260501202004 | 55 | 172 | 14.8 | 24.3 | 0.00 | 0.03 | 0.00 | 67 | 1012.5 |
| 20260501201503 | 55 | 196 | 14.8 | 24.3 | 0.00 | 0.03 | 0.00 | 63 | 1012.6 |
| 20260501201003 | 55 | 194 | 14.8 | 21.7 | 0.00 | 0.03 | 0.00 | 61 | 1012.5 |
| 20260501200503 | 56 | 199 | 11.3 | 21.7 | 0.00 | 0.03 | 0.00 | 64 | 1012.6 |
| 20260501200003 | 55 | 190 | 14.8 | 21.7 | 0.00 | 0.03 | 0.00 | 65 | 1012.6 |
| 20260501195503 | 56 | 200 | 13.9 | 19.1 | 0.00 | 0.03 | 0.00 | 60 | 1012.6 |
| 20260501195003 | 56 | 187 | 10.4 | 19.1 | 0.00 | 0.03 | 0.00 | 59 | 1012.6 |
| 20260501194502 | 56 | 189 | 12.2 | 20.9 | 0.00 | 0.03 | 0.00 | 60 | 1012.6 |
| 20260501194001 | 55 | 206 | 13.0 | 20.9 | 0.00 | 0.03 | 0.00 | 63 | 1012.7 |
| 20260501193501 | 56 | 193 | 12.2 | 18.2 | 0.00 | 0.03 | 0.00 | 61 | 1012.7 |
| 20260501193001 | 56 | 201 | 9.6 | 19.1 | 0.00 | 0.03 | 0.00 | 64 | 1012.7 |
| 20260501192501 | 57 | 215 | 11.3 | 19.1 | 0.00 | 0.03 | 0.00 | 62 | 1012.8 |
| 20260501192001 | 58 | 214 | 7.0 | 17.4 | 0.00 | 0.03 | 0.00 | 60 | 1012.8 |
| 20260501191603 | 60 | 207 | 10.4 | 16.5 | 0.00 | 0.03 | 0.00 | 52 | 1012.7 |
| 20260501191101 | 60 | 228 | 9.6 | 13.9 | 0.00 | 0.03 | 0.00 | 51 | 1012.9 |
| 20260501190559 | 60 | 242 | 9.6 | 13.9 | 0.00 | 0.03 | 0.00 | 51 | 1012.9 |
| 20260501190059 | 60 | 239 | 8.7 | 13.9 | 0.00 | 0.03 | 0.00 | 48 | 1013.0 |
| 20260501185558 | 59 | 212 | 8.7 | 14.8 | 0.00 | 0.03 | 0.00 | 50 | 1013.0 |
| 20260501185059 | 59 | 227 | 9.6 | 16.5 | 0.00 | 0.03 | 0.00 | 49 | 1013.2 |
| 20260501184601 | 59 | 217 | 12.2 | 16.5 | 0.00 | 0.03 | 0.00 | 49 | 1013.1 |
| 20260501184058 | 59 | 229 | 11.3 | 15.6 | 0.00 | 0.03 | 0.00 | 50 | 1013.2 |
| 20260501183557 | 58 | 246 | 10.4 | 17.4 | 0.00 | 0.03 | 0.00 | 49 | 1013.2 |
| 20260501183059 | 58 | 239 | 12.2 | 18.2 | 0.00 | 0.03 | 0.00 | 51 | 1013.2 |
| 20260501182557 | 58 | 234 | 12.2 | 18.2 | 0.00 | 0.03 | 0.00 | 51 | 1013.2 |
| 20260501182059 | 58 | 228 | 11.3 | 18.2 | 0.00 | 0.03 | 0.00 | 51 | 1013.2 |
| 20260501181557 | 58 | 211 | 10.4 | 18.2 | 0.00 | 0.03 | 0.00 | 51 | 1013.4 |
| 20260501181056 | 58 | 212 | 9.6 | 14.8 | 0.00 | 0.03 | 0.00 | 51 | 1013.3 |
| 20260501180556 | 58 | 215 | 10.4 | 16.5 | 0.00 | 0.03 | 0.00 | 52 | 1013.3 |
| 20260501180057 | 58 | 242 | 10.4 | 16.5 | 0.00 | 0.03 | 0.00 | 54 | 1013.3 |
| 20260501175558 | 58 | 233 | 9.6 | 14.8 | 0.00 | 0.03 | 0.00 | 53 | 1013.4 |
| 20260501175057 | 57 | 175 | 7.0 | 16.5 | 0.00 | 0.03 | 0.00 | 54 | 1013.4 |
| 20260501174636 | 57 | 223 | 7.8 | 18.2 | 0.00 | 0.03 | 0.00 | 54 | 1013.4 |
| 20260501174054 | 57 | 258 | 12.2 | 18.2 | 0.00 | 0.03 | 0.00 | 53 | 1013.5 |
| 20260501173558 | 57 | 238 | 12.2 | 16.5 | 0.00 | 0.03 | 0.00 | 57 | 1013.5 |
| 20260501173102 | 56 | 166 | 9.6 | 17.4 | 0.00 | 0.03 | 0.00 | 58 | 1013.5 |
| 20260501172557 | 57 | 240 | 11.3 | 17.4 | 0.00 | 0.03 | 0.00 | 56 | 1013.5 |
| 20260501172054 | 57 | 205 | 11.3 | 18.2 | 0.00 | 0.03 | 0.00 | 56 | 1013.6 |
| 20260501171555 | 57 | 253 | 13.0 | 17.4 | 0.00 | 0.03 | 0.00 | 54 | 1013.6 |